CAPE
0 0 0 0 0 0 0 19 596 1109 1098 958 906 753 639 623 597 594 647 690 810 868 751 581 348 292 187 112 92 42 28 43
0 0 0 0 0 0 0 0 561 1448 1560 1420 1398 1361 1082 905 749 736 780 817 857 886 819 586 337 507 392 217 185 56 35 30
0 0 0 0 0 0 0 0 492 1334 1876 1890 1775 1694 1505 1319 1278 1201 1182 1076 1041 916 855 645 483 642 493 354 181 103 50 35
0 0 0 0 0 0 0 0 232 1714 2174 2020 1670 1494 1157 1170 1163 1383 1355 1287 1325 1305 1211 952 759 720 543 348 150 106 122 22
0 0 0 0 0 0 73 416 1219 1829 1990 1830 1685 1441 1327 1082 1220 980 868 1190 1402 1490 1515 1268 908 608 418 223 117 103 78 74
0 0 0 0 86 289 699 1165 1386 1362 1617 1646 1189 1034 1200 1264 1345 1228 1111 955 1283 1423 1212 1291 1074 702 485 238 151 43 78 91
0 0 0 0 152 374 556 921 875 723 733 640 743 738 693 675 636 890 1170 1001 786 1041 947 1043 859 672 528 224 158 68 45 95
0 0 0 90 137 388 572 436 610 548 397 284 160 356 356 421 517 663 833 724 448 339 457 709 635 479 378 261 143 125 94 66
0 5 0 188 61 5 26 40 59 24 59 6 0 7 34 78 132 236 336 405 439 316 330 424 485 391 327 242 190 158 105 57
0 70 50 5 0 0 0 0 0 0 0 0 0 0 0 0 0 63 155 255 207 113 139 239 362 394 307 325 235 159 92 78
1 49 7 1 0 0 0 0 0 0 0 0 0 0 0 0 0 0 6 37 107 111 155 183 250 346 372 301 224 181 152 128
2 1 4 3 0 0 0 0 0 0 0 0 0 0 0 0 0 0 0 0 0 38 110 112 155 323 325 250 218 216 175 168
2 4 0 3 2 0 0 0 0 0 0 0 0 0 0 0 0 0 0 0 0 0 2 86 112 196 218 181 207 162 181 173
1 0 1 0 2 1 0 0 0 0 0 0 0 0 0 0 0 0 0 0 0 0 0 0 78 103 205 205 157 127 140 169
1 0 0 0 1 2 0 0 0 0 0 0 0 0 0 0 0 0 0 0 0 0 0 0 0 40 49 144 129 112 114 115
0 1 1 0 1 0 0 0 0 0 0 0 0 0 0 0 0 0 0 0 0 0 0 0 0 0 41 30 55 118 71 32
0 0 0 0 0 0 0 0 0 0 0 0 0 0 0 0 0 1 0 1 0 1 0 0 0 0 0 2 0 4 6 1
0 0 0 0 0 0 0 0 0 0 0 0 0 0 0 0 2 2 1 2 3 3 2 3 2 0 0 0 0 0 1 1
0 0 0 0 0 0 0 0 0 0 0 0 0 1 1 1 1 2 2 3 4 3 2 2 2 2 1 1 0 0 0 0
CIN
0 0 0 0 0 0 0 -79 -298 -333 -341 -319 -300 -331 -343 -341 -320 -289 -243 -205 -137 -110 -119 -134 -138 -130 -156 -189 -187 -227 -203 -110
0 0 0 0 0 0 0 -1 -295 -277 -215 -226 -207 -231 -288 -284 -283 -241 -207 -178 -157 -121 -105 -122 -142 -102 -105 -125 -113 -149 -132 -126
0 0 0 0 0 0 0 0 -320 -283 -220 -190 -166 -192 -177 -182 -178 -169 -166 -147 -186 -163 -113 -140 -123 -55 -41 -78 -121 -123 -105 -112
0 0 0 0 0 0 0 0 -418 -201 -120 -138 -205 -175 -170 -127 -133 -125 -108 -109 -114 -105 -81 -91 -107 -57 -43 -70 -125 -119 -101 -114
0 0 0 0 0 0 -450 -318 -256 -138 -107 -122 -196 -182 -135 -114 -79 -106 -65 -94 -88 -53 -38 -39 -71 -90 -68 -71 -120 -106 -107 -119
0 0 0 0 -389 -359 -269 -287 -193 -181 -151 -151 -124 -38 -44 -163 -105 -118 -111 -107 -59 -46 -44 -32 -31 -50 -47 -66 -80 -111 -121 -118
0 0 0 0 -323 -218 -197 -238 -309 -291 -276 -264 -163 -136 -156 -168 -179 -150 -120 -107 -97 -57 -41 -26 -31 -35 -33 -57 -74 -103 -122 -108
0 0 0 -201 -250 -167 -157 -201 -278 -331 -295 -242 -236 -262 -241 -203 -224 -188 -96 -88 -101 -117 -64 -34 -26 -38 -40 -44 -67 -79 -89 -108
0 -157 0 -145 -187 -33 -355 -334 -370 -491 -388 -241 0 -287 -301 -285 -292 -264 -180 -79 -86 -78 -49 -41 -32 -41 -35 -39 -37 -63 -75 -123
0 -184 -213 -161 0 0 0 0 0 0 0 0 0 0 0 0 0 -309 -222 -87 -85 -97 -77 -43 -35 -34 -48 -32 -20 -45 -73 -126
0 -74 -119 0 0 0 0 0 0 0 0 0 0 0 0 0 0 0 -254 -277 -161 -123 -64 -46 -32 -27 -28 -35 -32 -34 -49 -82
0 0 0 0 0 0 0 0 0 0 0 0 0 0 0 0 0 0 0 0 -113 -283 -108 -68 -42 -18 -15 -31 -34 -29 -66 -77
0 0 0 0 0 0 0 0 0 0 0 0 0 0 0 0 0 0 0 0 0 0 -110 -97 -68 -34 -20 -29 -23 -45 -52 -66
0 0 0 0 0 0 0 0 0 0 0 0 0 0 0 0 0 0 0 0 0 0 0 0 -102 -18 -2 -16 -25 -32 -50 -66
0 0 0 0 0 0 0 0 0 0 0 0 0 0 0 0 0 0 0 0 0 0 0 0 0 -94 -67 -8 -21 -17 -48 -67
0 0 0 0 0 0 0 0 0 0 0 0 0 0 0 0 0 0 0 0 0 0 0 0 0 0 -102 -82 -58 -27 -40 -72
0 0 0 0 0 0 0 0 0 0 0 0 0 0 0 0 0 0 0 0 0 0 0 0 0 0 0 -131 -14 -83 -110 -49
0 0 0 0 0 0 0 0 0 0 0 0 0 0 0 0 0 0 0 0 0 0 0 0 0 0 0 0 0 0 0 0
0 0 0 0 0 0 0 0 0 0 0 0 0 0 0 0 0 0 0 0 0 0 0 0 0 0 0 0 0 0 0 0
Wind_Speed
31 34 35 37 36 34 33 29 28 26 25 24 23 23 22 21 19 17 15 16 18 18 18 17 15 15 13 11 9 6 5 4
32 34 36 39 39 39 36 30 29 28 27 27 26 27 23 24 21 20 18 17 16 17 18 18 17 15 15 13 12 10 11 6
38 36 36 37 41 39 36 32 30 30 29 29 26 26 25 24 23 21 19 18 15 14 16 16 16 18 17 15 14 14 15 7
44 45 44 40 36 33 32 28 28 28 27 25 24 22 25 25 25 22 23 18 18 17 18 17 18 19 19 18 16 13 11 9
47 48 48 44 37 30 25 22 20 22 22 25 24 26 25 25 27 23 30 27 23 22 22 21 22 21 21 19 18 16 13 12
50 48 45 38 30 26 20 13 14 16 18 21 20 24 25 22 21 23 23 31 30 28 26 25 25 24 24 21 18 18 17 15
50 46 39 33 24 19 16 8 6 8 9 13 18 17 17 18 17 21 25 27 31 31 30 28 27 27 24 22 21 19 17 17
49 47 35 23 19 15 12 12 8 8 9 10 16 14 17 18 19 22 25 27 30 33 31 30 29 27 26 25 23 21 18 18
45 45 29 16 16 15 11 10 9 9 9 10 16 20 20 22 22 23 26 28 32 32 31 31 28 25 25 24 23 21 20 18
40 28 13 10 10 11 9 9 10 10 12 15 16 21 20 24 24 24 25 26 30 31 30 31 30 27 25 24 25 22 20 20
31 21 11 9 8 9 10 10 10 9 12 16 14 18 20 23 24 24 25 26 29 31 31 31 31 30 26 23 21 22 21 20
24 19 19 12 5 7 9 11 13 12 13 14 16 19 21 23 24 25 27 28 29 31 32 33 33 30 28 26 25 25 23 21
23 20 20 14 6 6 10 12 14 14 15 18 20 20 23 25 27 28 29 30 31 32 33 34 33 31 28 26 29 26 25 24
20 22 19 16 12 7 9 14 16 17 17 19 20 23 25 27 29 29 30 31 33 33 34 34 33 32 31 27 27 26 25 25
22 24 22 20 20 13 16 18 19 21 21 23 24 26 28 30 31 32 33 33 33 33 35 36 36 36 35 32 30 27 25 24
27 25 25 22 21 21 20 23 25 25 25 26 28 29 30 31 31 32 32 32 32 34 35 35 36 37 36 35 31 29 29 28
30 30 30 28 26 26 24 25 26 27 28 30 30 31 32 33 32 33 32 32 33 33 35 35 37 37 38 36 34 30 30 31
33 34 34 32 31 30 29 28 29 30 30 31 32 33 33 34 34 34 34 34 35 34 35 35 37 38 39 41 37 35 32 30
33 34 34 32 31 31 31 31 32 32 33 34 34 34 34 34 35 35 35 36 37 37 36 36 37 37 38 40 43 38 35 34
Wind_Direction
297 291 289 288 288 287 285 279 262 255 249 250 257 261 264 265 264 265 267 266 265 265 267 265 264 262 260 262 261 255 249 252
301 296 291 290 290 285 285 279 268 254 247 246 251 255 256 261 262 266 268 266 262 261 266 265 259 256 254 254 259 261 284 271
299 298 297 295 291 288 286 279 267 250 247 248 255 257 262 263 264 263 261 260 252 252 262 265 260 263 259 252 252 270 276 216
297 294 296 297 296 293 287 281 269 251 247 243 252 262 273 268 269 268 265 256 259 257 261 267 267 265 261 253 246 238 245 229
298 298 295 293 294 293 289 285 267 251 242 244 249 253 261 269 272 275 273 268 267 264 266 267 270 268 264 259 255 240 238 230
298 298 296 297 293 294 286 282 274 253 243 238 256 260 271 270 272 277 274 273 273 272 270 269 269 267 266 262 258 246 238 241
300 299 297 297 287 291 291 270 264 257 254 267 262 270 272 276 278 282 282 279 276 273 274 272 269 266 263 261 259 250 244 239
302 298 294 292 279 280 282 280 263 245 266 285 285 287 288 293 294 290 288 285 278 274 274 272 269 267 264 262 257 251 244 235
306 300 288 276 274 282 273 274 277 283 282 278 301 292 295 297 299 296 296 286 279 278 277 273 270 267 266 262 258 251 246 233
315 316 299 277 276 281 285 277 284 295 295 298 297 295 301 301 301 301 300 294 281 281 279 273 270 268 265 262 261 256 252 244
317 326 319 281 272 278 287 290 286 302 316 315 313 309 309 313 311 304 300 297 284 280 280 275 273 270 267 262 259 259 252 247
329 329 329 312 290 284 288 293 296 305 307 316 325 323 322 315 312 308 299 295 289 284 282 278 274 273 270 265 263 261 250 248
329 324 342 320 319 308 309 306 306 313 311 313 322 317 314 309 309 306 302 298 294 287 285 282 278 273 273 268 264 264 254 249
313 336 315 325 319 333 324 327 313 311 311 316 314 316 310 306 304 299 302 304 298 289 282 282 281 275 274 271 265 265 259 251
324 329 325 327 327 334 316 316 312 307 308 309 310 307 304 308 305 304 309 305 300 292 285 279 279 276 273 271 266 264 263 259
325 324 324 313 319 336 319 308 306 306 307 306 302 305 306 310 312 313 318 310 304 298 293 286 283 279 272 270 268 265 262 263
318 322 319 310 310 324 321 307 306 304 305 306 307 308 307 310 312 312 318 315 308 302 296 293 287 281 277 271 269 267 261 260
317 317 319 317 315 314 314 305 307 312 313 313 311 308 309 309 309 310 311 311 308 306 301 296 292 285 279 273 268 266 263 260
319 319 319 317 316 319 314 317 319 316 316 312 312 311 308 309 310 308 308 309 305 303 304 304 296 291 285 278 268 266 264 263